Preview of NWS' New Version of Forecast
This preview is not operational and should not be used for support decisions.

Regional Weather Roundup (RWR)

Issued by National Weather Service (NWS)

                            
000
ASUS45 KCYS 171710
RWRWY 

WYOMING REGIONAL WEATHER ROUNDUP
NATIONAL WEATHER SERVICE CHEYENNE WY
1100 AM MDT WED APR 17 2019

NOTE:  "FAIR" INDICATES FEW OR NO CLOUDS BELOW 12,000 FEET
WITH NO SIGNIFICANT WEATHER AND/OR OBSTRUCTIONS TO VISIBILITY.

WYZ001-171800-
...YELLOWSTONE NATIONAL PARK...
  
CITY           SKY/WX    TMP DP  RH WIND       PRES   REMARKS
LK YELLOWSTONE NOT AVBL                                               
W YELLOWSTONE  NOT AVBL                                               

$$
WYZ002>013-054>058-071-098>099-171800-
...NORTHERN WYOMING...
  
CITY           SKY/WX    TMP DP  RH WIND       PRES   REMARKS
JACKSON        PTSUNNY   37  30  75 SW6       30.13F WCI  32          
CODY           PTSUNNY   49  23  36 VRB5      30.02S                  
GREYBULL       CLOUDY    48  30  49 CALM      30.02R                  
WORLAND        CLOUDY    49  32  52 CALM      30.02R                  
SHERIDAN       CLOUDY    53  29  39 N24       29.98S                  
BUFFALO        CLOUDY    48  28  46 N14       29.99R                  
GILLETTE       MOSUNNY   50  29  44 NW25G36   29.95F                  
HULETT         FAIR      50  32  50 NW8G18    29.96S                  
NEWCASTLE      FAIR      50  28  43 NW21G28   29.95F                  

$$
WYZ014>020-022>026-101>103-171800-
...CENTRAL WYOMING...
  
CITY           SKY/WX    TMP DP  RH WIND       PRES   REMARKS
BIG PINEY      MOSUNNY   43  24  47 NW23G32   30.14R                  
PINEDALE       CLOUDY    37  23  56 NW20G28   30.13R WCI  27          
DUBOIS         PTSUNNY   41  21  45 NW25G32   30.05F                  
LANDER         MOSUNNY   49  30  48 VRB5      30.03R                  
RIVERTON       PTSUNNY   48  32  53 W3        30.03F                  
CASPER         CLOUDY    47  34  60 NW7       30.01F                  
DOUGLAS        PTSUNNY   50  31  48 NW14G21   30.02S                  

$$
WYZ021-027>030-104>119-171800-
...SOUTHERN WYOMING...
  
CITY           SKY/WX    TMP DP  RH WIND       PRES   REMARKS
EVANSTON       SUNNY     38  24  57 W10       30.19R WCI  31          
KEMMERER       MOSUNNY   37  27  65 W15G21    30.18R WCI  28          
FORT BRIDGER   FAIR      43  27  52 W13       30.20R                  
ROCK SPRINGS   MOSUNNY   41  30  65 W18       30.13R                  
DIXON          CLOUDY    44  30  57 NE5       30.14R                  
RAWLINS        PTSUNNY   44  31  60 W10       30.08R                  
SARATOGA       CLOUDY    43  30  61 W12       30.10R                  
LARAMIE        PTSUNNY   45  31  58 N18G28    30.02R                  
CHEYENNE       PTSUNNY   48  34  58 NW16G24   30.01R                  
TORRINGTON     MOSUNNY   54  27  35 NW29G40   29.96R                  
PINE BLUFFS    FAIR      50  30  46 NW26      29.99S                  

$$